Time,TemperatureF,DewpointF,PressureIn,WindDirection,WindDirectionDegrees,WindSpeedMPH,WindSpeedGustMPH,Humidity,HourlyPrecipIn,Conditions,Clouds,dailyrainin,SolarRadiationWatts/m^2,SoftwareType,DateUTC
2013-07-04 00:01:00,61.9,61.3,30.11,East,94,0.0,0.0,98,-99.99,,,-99.99,0.0,meteohub,2013-07-04 04:01:00,
2013-07-04 00:02:00,61.9,61.3,30.11,East,94,0.0,0.0,98,-99.99,,,-99.99,0.0,meteohub,2013-07-04 04:02:00,
2013-07-04 00:07:00,61.7,61.2,30.11,East,94,0.0,0.0,98,-99.99,,,-99.99,0.0,meteohub,2013-07-04 04:07:00,
2013-07-04 00:12:00,61.7,61.3,30.11,East,94,0.0,0.0,99,-99.99,,,-99.99,0.0,meteohub,2013-07-04 04:12:00,
2013-07-04 00:17:00,61.7,61.3,30.11,East,94,0.0,0.0,99,-99.99,,,-99.99,0.0,meteohub,2013-07-04 04:17:00,
2013-07-04 00:22:00,61.9,61.5,30.11,East,94,0.0,0.0,99,-99.99,,,-99.99,0.0,meteohub,2013-07-04 04:22:00,
2013-07-04 00:27:00,62.1,61.7,30.10,East,94,0.0,0.0,99,-99.99,,,-99.99,0.0,meteohub,2013-07-04 04:27:00,
2013-07-04 00:32:00,62.1,61.7,30.10,East,94,0.0,0.0,99,-99.99,,,-99.99,0.0,meteohub,2013-07-04 04:32:00,
2013-07-04 00:37:00,62.1,61.7,30.11,East,94,0.0,0.0,99,-99.99,,,-99.99,0.0,meteohub,2013-07-04 04:37:00,
2013-07-04 00:42:00,62.1,61.7,30.11,East,94,0.0,0.0,99,-99.99,,,-99.99,0.0,meteohub,2013-07-04 04:42:00,
2013-07-04 00:47:00,62.1,61.7,30.11,East,94,0.0,0.0,99,-99.99,,,-99.99,0.0,meteohub,2013-07-04 04:47:00,
2013-07-04 00:52:00,62.2,61.9,30.11,East,94,0.0,1.0,99,-99.99,,,-99.99,0.0,meteohub,2013-07-04 04:52:00,
2013-07-04 00:57:00,62.2,61.9,30.11,East,94,0.0,1.0,99,-99.99,,,-99.99,0.0,meteohub,2013-07-04 04:57:00,
2013-07-04 01:02:00,62.2,61.9,30.11,East,94,0.0,1.0,99,-99.99,,,-99.99,0.0,meteohub,2013-07-04 05:02:00,
2013-07-04 01:07:00,62.2,61.9,30.11,East,94,0.0,0.0,99,-99.99,,,-99.99,0.0,meteohub,2013-07-04 05:07:00,
2013-07-04 01:12:00,62.4,62.1,30.10,East,94,0.0,0.0,99,-99.99,,,-99.99,0.0,meteohub,2013-07-04 05:12:00,
2013-07-04 01:17:00,62.6,62.2,30.10,East,94,0.0,0.0,99,-99.99,,,-99.99,0.0,meteohub,2013-07-04 05:17:00,
2013-07-04 01:22:00,62.8,62.4,30.10,East,94,0.0,0.0,99,-99.99,,,-99.99,0.0,meteohub,2013-07-04 05:22:00,
2013-07-04 01:27:00,62.8,62.4,30.10,East,94,0.0,1.0,99,-99.99,,,-99.99,0.0,meteohub,2013-07-04 05:27:00,
2013-07-04 01:32:00,63.0,62.6,30.10,East,94,0.0,1.0,99,-99.99,,,-99.99,0.0,meteohub,2013-07-04 05:32:00,
2013-07-04 01:37:00,63.0,62.6,30.10,East,94,0.0,1.0,99,-99.99,,,-99.99,0.0,meteohub,2013-07-04 05:37:00,
2013-07-04 01:42:00,63.0,62.6,30.11,East,94,0.0,1.0,99,-99.99,,,-99.99,0.0,meteohub,2013-07-04 05:42:00,
2013-07-04 01:47:00,63.0,62.6,30.11,East,94,0.0,1.0,99,-99.99,,,-99.99,0.0,meteohub,2013-07-04 05:47:00,
2013-07-04 01:52:00,63.0,62.6,30.11,East,94,0.0,1.0,99,-99.99,,,-99.99,0.0,meteohub,2013-07-04 05:52:00,
2013-07-04 01:57:00,63.0,62.6,30.10,East,94,0.0,1.0,99,-99.99,,,-99.99,0.0,meteohub,2013-07-04 05:57:00,
2013-07-04 02:02:00,62.8,62.4,30.10,East,94,0.0,1.0,99,-99.99,,,-99.99,0.0,meteohub,2013-07-04 06:02:00,
2013-07-04 02:07:00,63.0,62.6,30.10,East,94,0.0,1.0,99,-99.99,,,-99.99,0.0,meteohub,2013-07-04 06:07:00,
2013-07-04 02:12:00,63.0,62.6,30.10,East,93,0.0,2.0,99,-99.99,,,-99.99,0.0,meteohub,2013-07-04 06:12:00,
2013-07-04 02:17:00,63.0,62.6,30.10,East,92,0.0,3.0,99,-99.99,,,-99.99,0.0,meteohub,2013-07-04 06:17:00,
2013-07-04 02:22:00,63.0,62.6,30.10,East,90,1.0,3.0,99,-99.99,,,-99.99,0.0,meteohub,2013-07-04 06:22:00,
2013-07-04 02:27:00,63.0,62.6,30.10,East,90,0.0,3.0,99,-99.99,,,-99.99,0.0,meteohub,2013-07-04 06:27:00,
2013-07-04 02:32:00,63.0,62.6,30.10,East,90,0.0,2.0,99,-99.99,,,-99.99,0.0,meteohub,2013-07-04 06:32:00,
2013-07-04 02:37:00,62.8,62.4,30.10,East,90,0.0,2.0,99,-99.99,,,-99.99,0.0,meteohub,2013-07-04 06:37:00,
2013-07-04 02:42:00,62.8,62.4,30.10,East,89,0.0,1.0,99,-99.99,,,-99.99,0.0,meteohub,2013-07-04 06:42:00,
2013-07-04 02:47:00,62.8,62.4,30.10,East,89,0.0,1.0,99,-99.99,,,-99.99,0.0,meteohub,2013-07-04 06:47:00,
2013-07-04 02:52:00,62.8,62.4,30.10,East,85,0.0,1.0,99,-99.99,,,-99.99,0.0,meteohub,2013-07-04 06:52:00,
2013-07-04 02:57:00,62.6,62.2,30.10,East,88,1.0,1.0,99,-99.99,,,-99.99,0.0,meteohub,2013-07-04 06:57:00,
2013-07-04 03:02:00,62.6,62.2,30.10,East,85,0.0,2.0,99,-99.99,,,-99.99,0.0,meteohub,2013-07-04 07:02:00,
2013-07-04 03:07:00,62.6,62.2,30.10,East,85,0.0,2.0,99,-99.99,,,-99.99,0.0,meteohub,2013-07-04 07:07:00,
2013-07-04 03:12:00,62.8,62.4,30.10,East,90,0.0,2.0,99,-99.99,,,-99.99,0.0,meteohub,2013-07-04 07:12:00,
2013-07-04 03:17:00,62.8,62.4,30.10,East,90,1.0,2.0,99,-99.99,,,-99.99,0.0,meteohub,2013-07-04 07:17:00,
2013-07-04 03:22:00,62.8,62.4,30.10,East,90,0.0,1.0,99,-99.99,,,-99.99,0.0,meteohub,2013-07-04 07:22:00,
2013-07-04 03:27:00,62.8,62.4,30.10,East,90,0.0,1.0,99,-99.99,,,-99.99,0.0,meteohub,2013-07-04 07:27:00,
2013-07-04 03:32:00,62.8,62.4,30.09,East,90,0.0,1.0,99,-99.99,,,-99.99,0.0,meteohub,2013-07-04 07:32:00,
2013-07-04 03:37:00,62.8,62.4,30.09,East,91,0.0,1.0,99,-99.99,,,-99.99,0.0,meteohub,2013-07-04 07:37:00,
2013-07-04 03:42:00,62.8,62.4,30.10,East,91,0.0,1.0,99,-99.99,,,-99.99,0.0,meteohub,2013-07-04 07:42:00,
2013-07-04 03:47:00,62.8,62.4,30.09,East,91,0.0,1.0,99,-99.99,,,-99.99,0.0,meteohub,2013-07-04 07:47:00,
2013-07-04 03:52:00,62.8,62.4,30.09,East,91,0.0,1.0,99,-99.99,,,-99.99,0.0,meteohub,2013-07-04 07:52:00,
2013-07-04 03:57:00,62.8,62.4,30.09,East,91,0.0,0.0,99,-99.99,,,-99.99,0.0,meteohub,2013-07-04 07:57:00,
2013-07-04 04:02:00,62.8,62.4,30.09,East,91,0.0,1.0,99,-99.99,,,-99.99,0.0,meteohub,2013-07-04 08:02:00,
2013-07-04 04:07:00,62.8,62.4,30.10,East,91,0.0,1.0,99,-99.99,,,-99.99,0.0,meteohub,2013-07-04 08:07:00,
2013-07-04 04:12:00,62.8,62.4,30.09,East,91,1.0,0.0,99,-99.99,,,-99.99,0.0,meteohub,2013-07-04 08:12:00,
2013-07-04 04:17:00,63.0,63.0,30.10,East,91,0.0,1.0,100,-99.99,,,-99.99,0.0,meteohub,2013-07-04 08:17:00,
2013-07-04 04:22:00,63.0,63.0,30.10,East,91,0.0,1.0,100,-99.99,,,-99.99,0.0,meteohub,2013-07-04 08:22:00,
2013-07-04 04:27:00,63.0,63.0,30.10,East,92,0.0,2.0,100,-99.99,,,-99.99,0.0,meteohub,2013-07-04 08:27:00,
2013-07-04 04:32:00,63.0,62.6,30.10,East,92,0.0,2.0,99,-99.99,,,-99.99,0.0,meteohub,2013-07-04 08:32:00,
2013-07-04 04:37:00,63.0,62.6,30.10,East,92,0.0,2.0,99,-99.99,,,-99.99,0.0,meteohub,2013-07-04 08:37:00,
2013-07-04 04:42:00,63.0,62.6,30.11,East,92,0.0,0.0,99,-99.99,,,-99.99,0.0,meteohub,2013-07-04 08:42:00,
2013-07-04 04:47:00,63.0,62.6,30.10,East,92,0.0,0.0,99,-99.99,,,-99.99,0.0,meteohub,2013-07-04 08:47:00,
2013-07-04 04:52:00,63.0,62.6,30.10,East,92,0.0,0.0,99,-99.99,,,-99.99,0.0,meteohub,2013-07-04 08:52:00,
2013-07-04 04:57:00,63.0,62.6,30.11,East,92,0.0,0.0,99,-99.99,,,-99.99,0.0,meteohub,2013-07-04 08:57:00,
2013-07-04 05:02:00,63.0,63.0,30.11,East,92,0.0,0.0,100,-99.99,,,-99.99,0.0,meteohub,2013-07-04 09:02:00,
2013-07-04 05:07:00,63.0,63.0,30.11,East,92,0.0,0.0,100,-99.99,,,-99.99,5.0,meteohub,2013-07-04 09:07:00,
2013-07-04 05:12:00,63.0,63.0,30.11,East,92,0.0,1.0,100,-99.99,,,-99.99,7.0,meteohub,2013-07-04 09:12:00,
2013-07-04 05:17:00,63.0,62.6,30.11,East,92,0.0,1.0,99,-99.99,,,-99.99,11.0,meteohub,2013-07-04 09:17:00,
2013-07-04 05:22:00,63.0,63.0,30.11,East,92,0.0,0.0,100,-99.99,,,-99.99,12.0,meteohub,2013-07-04 09:22:00,
2013-07-04 05:27:00,63.0,63.0,30.11,East,92,0.0,0.0,100,-99.99,,,-99.99,12.0,meteohub,2013-07-04 09:27:00,
2013-07-04 05:32:00,62.8,62.4,30.11,East,92,0.0,0.0,99,-99.99,,,-99.99,16.0,meteohub,2013-07-04 09:32:00,
2013-07-04 05:37:00,62.6,62.2,30.11,East,92,0.0,0.0,99,-99.99,,,-99.99,19.0,meteohub,2013-07-04 09:37:00,
2013-07-04 05:42:00,62.4,62.1,30.11,East,92,0.0,0.0,99,-99.99,,,-99.99,23.0,meteohub,2013-07-04 09:42:00,
2013-07-04 05:47:00,62.4,62.1,30.12,East,92,0.0,0.0,99,-99.99,,,-99.99,25.0,meteohub,2013-07-04 09:47:00,
2013-07-04 05:52:00,62.4,62.4,30.12,East,92,0.0,0.0,100,-99.99,,,-99.99,23.0,meteohub,2013-07-04 09:52:00,
2013-07-04 05:57:00,62.4,62.4,30.12,East,92,0.0,0.0,100,-99.99,,,-99.99,26.0,meteohub,2013-07-04 09:57:00,
2013-07-04 06:02:00,62.6,62.6,30.12,East,92,0.0,0.0,100,-99.99,,,-99.99,30.0,meteohub,2013-07-04 10:02:00,
2013-07-04 06:07:00,63.0,63.0,30.12,East,92,0.0,0.0,100,-99.99,,,-99.99,32.0,meteohub,2013-07-04 10:07:00,
2013-07-04 06:12:00,63.1,63.1,30.12,East,92,0.0,1.0,100,-99.99,,,-99.99,69.0,meteohub,2013-07-04 10:12:00,
2013-07-04 06:17:00,63.1,63.1,30.13,East,92,0.0,1.0,100,-99.99,,,-99.99,91.0,meteohub,2013-07-04 10:17:00,
2013-07-04 06:22:00,63.3,63.3,30.12,East,92,0.0,1.0,100,-99.99,,,-99.99,83.0,meteohub,2013-07-04 10:22:00,
2013-07-04 06:27:00,63.5,63.5,30.13,East,92,0.0,1.0,100,-99.99,,,-99.99,44.0,meteohub,2013-07-04 10:27:00,
2013-07-04 06:32:00,63.7,63.7,30.13,East,92,0.0,1.0,100,-99.99,,,-99.99,69.0,meteohub,2013-07-04 10:32:00,
2013-07-04 06:37:00,63.9,63.9,30.13,East,92,0.0,0.0,100,-99.99,,,-99.99,58.0,meteohub,2013-07-04 10:37:00,
2013-07-04 06:42:00,63.9,63.9,30.13,East,92,0.0,0.0,100,-99.99,,,-99.99,74.0,meteohub,2013-07-04 10:42:00,
2013-07-04 06:47:00,64.0,64.0,30.13,East,92,0.0,0.0,100,-99.99,,,-99.99,76.0,meteohub,2013-07-04 10:47:00,
2013-07-04 06:52:00,63.9,63.5,30.13,East,92,0.0,0.0,99,-99.99,,,-99.99,58.0,meteohub,2013-07-04 10:52:00,
2013-07-04 06:57:00,63.9,63.5,30.13,East,92,0.0,0.0,99,-99.99,,,-99.99,63.0,meteohub,2013-07-04 10:57:00,
2013-07-04 07:02:00,64.0,64.0,30.13,East,92,0.0,0.0,100,-99.99,,,-99.99,165.0,meteohub,2013-07-04 11:02:00,
2013-07-04 07:07:00,64.6,64.6,30.14,East,92,0.0,0.0,100,-99.99,,,-99.99,120.0,meteohub,2013-07-04 11:07:00,
2013-07-04 07:12:00,64.8,64.8,30.14,East,92,0.0,0.0,100,-99.99,,,-99.99,220.0,meteohub,2013-07-04 11:12:00,
2013-07-04 07:17:00,65.3,65.3,30.14,East,92,0.0,0.0,100,-99.99,,,-99.99,220.0,meteohub,2013-07-04 11:17:00,
2013-07-04 07:22:00,65.8,65.8,30.14,East,92,0.0,0.0,100,-99.99,,,-99.99,104.0,meteohub,2013-07-04 11:22:00,
2013-07-04 07:27:00,66.7,66.7,30.14,East,92,0.0,0.0,100,-99.99,,,-99.99,70.0,meteohub,2013-07-04 11:27:00,
2013-07-04 07:32:00,67.6,67.6,30.14,East,92,0.0,0.0,100,-99.99,,,-99.99,84.0,meteohub,2013-07-04 11:32:00,
2013-07-04 07:37:00,68.2,68.2,30.14,East,92,0.0,0.0,100,-99.99,,,-99.99,76.0,meteohub,2013-07-04 11:37:00,
2013-07-04 07:42:00,68.5,68.5,30.14,East,92,0.0,0.0,100,-99.99,,,-99.99,93.0,meteohub,2013-07-04 11:42:00,
2013-07-04 07:47:00,69.1,69.1,30.14,East,92,0.0,0.0,100,-99.99,,,-99.99,116.0,meteohub,2013-07-04 11:47:00,
2013-07-04 07:52:00,69.6,69.6,30.14,East,92,0.0,0.0,100,-99.99,,,-99.99,343.0,meteohub,2013-07-04 11:52:00,
2013-07-04 07:57:00,70.0,70.0,30.14,East,92,0.0,0.0,100,-99.99,,,-99.99,338.0,meteohub,2013-07-04 11:57:00,
2013-07-04 08:02:00,70.3,70.0,30.14,East,92,0.0,0.0,99,-99.99,,,-99.99,422.0,meteohub,2013-07-04 12:02:00,
2013-07-04 08:07:00,70.7,70.2,30.14,East,92,0.0,0.0,98,-99.99,,,-99.99,434.0,meteohub,2013-07-04 12:07:00,
2013-07-04 08:12:00,71.1,70.2,30.14,East,92,0.0,0.0,97,-99.99,,,-99.99,417.0,meteohub,2013-07-04 12:12:00,
2013-07-04 08:17:00,71.2,69.8,30.14,East,92,0.0,0.0,95,-99.99,,,-99.99,271.0,meteohub,2013-07-04 12:17:00,
2013-07-04 08:22:00,71.4,69.3,30.14,East,92,0.0,1.0,93,-99.99,,,-99.99,190.0,meteohub,2013-07-04 12:22:00,
2013-07-04 08:27:00,72.0,70.2,30.14,East,92,0.0,1.0,94,-99.99,,,-99.99,151.0,meteohub,2013-07-04 12:27:00,
2013-07-04 08:32:00,72.7,70.9,30.14,East,92,0.0,1.0,94,-99.99,,,-99.99,227.0,meteohub,2013-07-04 12:32:00,
2013-07-04 08:37:00,73.2,70.7,30.14,East,92,0.0,0.0,92,-99.99,,,-99.99,77.0,meteohub,2013-07-04 12:37:00,
2013-07-04 08:42:00,73.6,70.7,30.14,East,92,0.0,0.0,91,-99.99,,,-99.99,86.0,meteohub,2013-07-04 12:42:00,
2013-07-04 08:47:00,73.9,71.1,30.14,East,92,0.0,0.0,91,-99.99,,,-99.99,128.0,meteohub,2013-07-04 12:47:00,
2013-07-04 08:52:00,74.5,71.1,30.14,East,92,0.0,0.0,89,-99.99,,,-99.99,128.0,meteohub,2013-07-04 12:52:00,
2013-07-04 08:57:00,74.8,71.8,30.14,East,92,0.0,0.0,90,-99.99,,,-99.99,88.0,meteohub,2013-07-04 12:57:00,
2013-07-04 09:02:00,75.2,71.8,30.13,East,92,0.0,0.0,89,-99.99,,,-99.99,84.0,meteohub,2013-07-04 13:02:00,
2013-07-04 09:07:00,75.6,72.5,30.14,East,92,0.0,1.0,90,-99.99,,,-99.99,105.0,meteohub,2013-07-04 13:07:00,
2013-07-04 09:12:00,75.7,72.0,30.14,East,92,0.0,1.0,88,-99.99,,,-99.99,137.0,meteohub,2013-07-04 13:12:00,
2013-07-04 09:17:00,76.3,71.8,30.14,East,92,0.0,1.0,86,-99.99,,,-99.99,93.0,meteohub,2013-07-04 13:17:00,
2013-07-04 09:22:00,76.5,71.6,30.14,East,92,0.0,1.0,85,-99.99,,,-99.99,125.0,meteohub,2013-07-04 13:22:00,
2013-07-04 09:27:00,76.8,71.2,30.14,East,92,0.0,1.0,83,-99.99,,,-99.99,225.0,meteohub,2013-07-04 13:27:00,
2013-07-04 09:32:00,77.2,71.2,30.13,East,92,0.0,1.0,82,-99.99,,,-99.99,148.0,meteohub,2013-07-04 13:32:00,
2013-07-04 09:37:00,77.0,71.1,30.13,East,92,0.0,0.0,82,-99.99,,,-99.99,195.0,meteohub,2013-07-04 13:37:00,
2013-07-04 09:42:00,77.2,71.2,30.13,WNW,294,0.0,2.0,82,-99.99,,,-99.99,301.0,meteohub,2013-07-04 13:42:00,
2013-07-04 09:47:00,77.5,71.2,30.13,WNW,286,0.0,2.0,81,-99.99,,,-99.99,253.0,meteohub,2013-07-04 13:47:00,
2013-07-04 09:52:00,77.7,71.1,30.13,West,278,0.0,2.0,80,-99.99,,,-99.99,519.0,meteohub,2013-07-04 13:52:00,
2013-07-04 09:57:00,78.3,71.2,30.14,West,277,1.0,1.0,79,-99.99,,,-99.99,371.0,meteohub,2013-07-04 13:57:00,
2013-07-04 10:02:00,78.4,70.2,30.13,West,273,0.0,1.0,76,-99.99,,,-99.99,606.0,meteohub,2013-07-04 14:02:00,
2013-07-04 10:07:00,78.8,71.1,30.13,West,273,1.0,2.0,77,-99.99,,,-99.99,367.0,meteohub,2013-07-04 14:07:00,
2013-07-04 10:12:00,79.2,70.2,30.13,West,267,1.0,2.0,74,-99.99,,,-99.99,756.0,meteohub,2013-07-04 14:12:00,
2013-07-04 10:17:00,79.3,69.4,30.13,WSW,242,1.0,2.0,72,-99.99,,,-99.99,761.0,meteohub,2013-07-04 14:17:00,
2013-07-04 10:22:00,79.5,70.5,30.13,WSW,242,0.0,3.0,74,-99.99,,,-99.99,675.0,meteohub,2013-07-04 14:22:00,
2013-07-04 10:27:00,79.9,70.0,30.13,West,259,1.0,3.0,72,-99.99,,,-99.99,673.0,meteohub,2013-07-04 14:27:00,
2013-07-04 10:32:00,79.9,70.5,30.13,West,259,0.0,3.0,73,-99.99,,,-99.99,457.0,meteohub,2013-07-04 14:32:00,
2013-07-04 10:37:00,79.9,70.0,30.13,West,259,2.0,3.0,72,-99.99,,,-99.99,654.0,meteohub,2013-07-04 14:37:00,
2013-07-04 10:42:00,80.1,69.8,30.13,West,264,1.0,2.0,71,-99.99,,,-99.99,772.0,meteohub,2013-07-04 14:42:00,
2013-07-04 10:47:00,80.2,70.0,30.13,West,265,1.0,3.0,71,-99.99,,,-99.99,821.0,meteohub,2013-07-04 14:47:00,
2013-07-04 10:52:00,80.6,70.0,30.12,West,265,1.0,3.0,70,-99.99,,,-99.99,828.0,meteohub,2013-07-04 14:52:00,
2013-07-04 10:58:00,80.8,70.9,30.12,West,264,0.0,3.0,72,-99.99,,,-99.99,831.0,meteohub,2013-07-04 14:58:00,
2013-07-04 11:03:00,81.0,70.7,30.12,West,265,1.0,3.0,71,-99.99,,,-99.99,840.0,meteohub,2013-07-04 15:03:00,
2013-07-04 11:08:00,81.3,70.2,30.12,West,261,1.0,3.0,69,-99.99,,,-99.99,846.0,meteohub,2013-07-04 15:08:00,
2013-07-04 11:13:00,81.7,70.9,30.12,West,261,0.0,3.0,70,-99.99,,,-99.99,849.0,meteohub,2013-07-04 15:13:00,
2013-07-04 11:18:00,81.9,70.3,30.12,West,261,1.0,3.0,68,-99.99,,,-99.99,858.0,meteohub,2013-07-04 15:18:00,
2013-07-04 11:23:00,82.0,70.3,30.12,WSW,254,1.0,3.0,68,-99.99,,,-99.99,861.0,meteohub,2013-07-04 15:23:00,
2013-07-04 11:28:00,82.2,70.2,30.12,West,261,1.0,3.0,67,-99.99,,,-99.99,868.0,meteohub,2013-07-04 15:28:00,
2013-07-04 11:33:00,81.9,69.8,30.12,West,261,1.0,3.0,67,-99.99,,,-99.99,870.0,meteohub,2013-07-04 15:33:00,
2013-07-04 11:38:00,82.0,70.3,30.12,WSW,254,2.0,2.0,68,-99.99,,,-99.99,872.0,meteohub,2013-07-04 15:38:00,
2013-07-04 11:43:00,82.4,70.3,30.11,WSW,254,0.0,3.0,67,-99.99,,,-99.99,877.0,meteohub,2013-07-04 15:43:00,
2013-07-04 11:48:00,82.8,70.7,30.11,WSW,254,1.0,3.0,67,-99.99,,,-99.99,879.0,meteohub,2013-07-04 15:48:00,
2013-07-04 11:53:00,82.9,70.3,30.11,WSW,254,1.0,2.0,66,-99.99,,,-99.99,882.0,meteohub,2013-07-04 15:53:00,
2013-07-04 11:58:00,83.1,71.1,30.11,WSW,254,1.0,2.0,67,-99.99,,,-99.99,886.0,meteohub,2013-07-04 15:58:00,
2013-07-04 12:03:00,83.3,70.3,30.11,West,259,0.0,2.0,65,-99.99,,,-99.99,889.0,meteohub,2013-07-04 16:03:00,
2013-07-04 12:08:00,83.5,69.6,30.11,West,259,0.0,3.0,63,-99.99,,,-99.99,886.0,meteohub,2013-07-04 16:08:00,
2013-07-04 12:13:00,83.8,71.2,30.11,West,259,0.0,3.0,66,-99.99,,,-99.99,773.0,meteohub,2013-07-04 16:13:00,
2013-07-04 12:18:00,84.0,69.1,30.11,WSW,257,1.0,2.0,61,-99.99,,,-99.99,202.0,meteohub,2013-07-04 16:18:00,
2013-07-04 12:23:00,84.4,70.0,30.11,WSW,257,1.0,3.0,62,-99.99,,,-99.99,202.0,meteohub,2013-07-04 16:23:00,
2013-07-04 12:28:00,84.4,70.0,30.11,West,260,2.0,3.0,62,-99.99,,,-99.99,244.0,meteohub,2013-07-04 16:28:00,
2013-07-04 12:33:00,84.6,69.6,30.11,West,260,0.0,3.0,61,-99.99,,,-99.99,114.0,meteohub,2013-07-04 16:33:00,
2013-07-04 12:38:00,84.6,69.6,30.11,West,260,0.0,3.0,61,-99.99,,,-99.99,114.0,meteohub,2013-07-04 16:38:00,
2013-07-04 12:43:00,84.9,70.5,30.10,West,261,1.0,2.0,62,-99.99,,,-99.99,204.0,meteohub,2013-07-04 16:43:00,
2013-07-04 12:48:00,85.3,69.8,30.10,West,262,2.0,3.0,60,-99.99,,,-99.99,111.0,meteohub,2013-07-04 16:48:00,
2013-07-04 12:53:00,85.3,69.8,30.10,West,260,2.0,3.0,60,-99.99,,,-99.99,144.0,meteohub,2013-07-04 16:53:00,
2013-07-04 12:58:00,85.3,69.3,30.10,West,259,2.0,3.0,59,-99.99,,,-99.99,111.0,meteohub,2013-07-04 16:58:00,
2013-07-04 13:03:00,85.3,69.3,30.10,West,266,2.0,3.0,59,-99.99,,,-99.99,111.0,meteohub,2013-07-04 17:03:00,
2013-07-04 13:08:00,84.9,69.4,30.10,West,265,2.0,3.0,60,-99.99,,,-99.99,128.0,meteohub,2013-07-04 17:08:00,
2013-07-04 13:13:00,85.3,69.8,30.10,West,267,1.0,3.0,60,-99.99,,,-99.99,128.0,meteohub,2013-07-04 17:13:00,
2013-07-04 13:18:00,85.3,69.8,30.09,West,266,1.0,3.0,60,-99.99,,,-99.99,116.0,meteohub,2013-07-04 17:18:00,
2013-07-04 13:24:00,85.6,70.2,30.09,West,266,1.0,3.0,60,-99.99,,,-99.99,116.0,meteohub,2013-07-04 17:24:00,
2013-07-04 13:29:00,86.0,70.0,30.09,West,266,2.0,3.0,59,-99.99,,,-99.99,114.0,meteohub,2013-07-04 17:29:00,
2013-07-04 13:34:00,85.8,69.8,30.09,West,265,1.0,2.0,59,-99.99,,,-99.99,113.0,meteohub,2013-07-04 17:34:00,
2013-07-04 13:39:00,85.6,70.2,30.09,West,265,0.0,3.0,60,-99.99,,,-99.99,118.0,meteohub,2013-07-04 17:39:00,
2013-07-04 13:44:00,86.0,70.5,30.09,West,265,1.0,3.0,60,-99.99,,,-99.99,114.0,meteohub,2013-07-04 17:44:00,
2013-07-04 13:49:00,86.4,70.9,30.09,West,265,1.0,3.0,60,-99.99,,,-99.99,116.0,meteohub,2013-07-04 17:49:00,
2013-07-04 13:54:00,86.2,70.7,30.09,WSW,252,0.0,2.0,60,-99.99,,,-99.99,116.0,meteohub,2013-07-04 17:54:00,
2013-07-04 13:59:00,86.5,71.1,30.09,SSW,202,0.0,3.0,60,-99.99,,,-99.99,116.0,meteohub,2013-07-04 17:59:00,
2013-07-04 14:04:00,86.4,71.2,30.09,SW,214,0.0,3.0,61,-99.99,,,-99.99,118.0,meteohub,2013-07-04 18:04:00,
2013-07-04 14:09:00,85.8,71.2,30.09,East,95,0.0,5.0,62,-99.99,,,-99.99,183.0,meteohub,2013-07-04 18:09:00,
2013-07-04 14:14:00,85.5,72.3,30.08,East,98,1.0,5.0,65,-99.99,,,-99.99,158.0,meteohub,2013-07-04 18:14:00,
2013-07-04 14:19:00,84.9,71.8,30.08,East,79,2.0,5.0,65,-99.99,,,-99.99,121.0,meteohub,2013-07-04 18:19:00,
2013-07-04 14:24:00,84.2,72.5,30.08,East,89,0.0,5.0,68,-99.99,,,-99.99,123.0,meteohub,2013-07-04 18:24:00,
2013-07-04 14:29:00,83.7,72.0,30.08,ENE,71,0.0,5.0,68,-99.99,,,-99.99,795.0,meteohub,2013-07-04 18:29:00,
2013-07-04 14:34:00,83.5,71.8,30.08,East,92,0.0,5.0,68,-99.99,,,-99.99,788.0,meteohub,2013-07-04 18:34:00,
2013-07-04 14:39:00,83.3,72.1,30.08,ENE,77,2.0,5.0,69,-99.99,,,-99.99,777.0,meteohub,2013-07-04 18:39:00,
2013-07-04 14:44:00,83.1,72.3,30.08,ENE,75,0.0,4.0,70,-99.99,,,-99.99,784.0,meteohub,2013-07-04 18:44:00,
2013-07-04 14:49:00,82.9,72.1,30.08,ESE,120,0.0,3.0,70,-99.99,,,-99.99,775.0,meteohub,2013-07-04 18:49:00,
2013-07-04 14:54:00,83.1,72.7,30.08,ESE,103,2.0,3.0,71,-99.99,,,-99.99,751.0,meteohub,2013-07-04 18:54:00,
2013-07-04 14:59:00,83.1,72.3,30.08,SW,232,0.0,5.0,70,-99.99,,,-99.99,749.0,meteohub,2013-07-04 18:59:00,
2013-07-04 15:04:00,82.8,71.6,30.07,East,83,0.0,5.0,69,-99.99,,,-99.99,738.0,meteohub,2013-07-04 19:04:00,
2013-07-04 15:09:00,82.6,71.8,30.07,WNW,292,2.0,5.0,70,-99.99,,,-99.99,726.0,meteohub,2013-07-04 19:09:00,
2013-07-04 15:14:00,82.2,71.4,30.07,East,80,0.0,5.0,70,-99.99,,,-99.99,717.0,meteohub,2013-07-04 19:14:00,
2013-07-04 15:19:00,82.0,71.2,30.07,East,91,0.0,5.0,70,-99.99,,,-99.99,708.0,meteohub,2013-07-04 19:19:00,
2013-07-04 15:24:00,81.7,71.8,30.07,East,82,0.0,4.0,72,-99.99,,,-99.99,696.0,meteohub,2013-07-04 19:24:00,
2013-07-04 15:29:00,81.5,71.2,30.07,ESE,103,0.0,6.0,71,-99.99,,,-99.99,684.0,meteohub,2013-07-04 19:29:00,
2013-07-04 15:34:00,81.5,71.2,30.07,East,84,2.0,6.0,71,-99.99,,,-99.99,671.0,meteohub,2013-07-04 19:34:00,
2013-07-04 15:39:00,81.3,71.1,30.07,East,98,1.0,5.0,71,-99.99,,,-99.99,666.0,meteohub,2013-07-04 19:39:00,
2013-07-04 15:44:00,81.1,70.9,30.07,ENE,78,0.0,5.0,71,-99.99,,,-99.99,652.0,meteohub,2013-07-04 19:44:00,
2013-07-04 15:49:00,81.1,71.2,30.07,East,80,3.0,5.0,72,-99.99,,,-99.99,635.0,meteohub,2013-07-04 19:49:00,
2013-07-04 15:54:00,81.0,71.4,30.07,East,98,1.0,6.0,73,-99.99,,,-99.99,624.0,meteohub,2013-07-04 19:54:00,
2013-07-04 15:59:00,81.1,72.1,30.07,ENE,75,0.0,6.0,74,-99.99,,,-99.99,619.0,meteohub,2013-07-04 19:59:00,
2013-07-04 16:00:00,81.1,72.1,30.07,NE,54,2.0,6.0,74,-99.99,,,-99.99,619.0,meteohub,2013-07-04 20:00:00,
2013-07-04 16:05:00,81.1,71.6,30.07,ENE,67,1.0,7.0,73,-99.99,,,-99.99,605.0,meteohub,2013-07-04 20:05:00,
2013-07-04 16:10:00,81.3,71.8,30.06,ENE,73,0.0,7.0,73,-99.99,,,-99.99,592.0,meteohub,2013-07-04 20:10:00,
2013-07-04 16:15:00,81.5,72.0,30.07,NE,54,0.0,5.0,73,-99.99,,,-99.99,587.0,meteohub,2013-07-04 20:15:00,
2013-07-04 16:20:00,81.5,71.6,30.06,SSE,150,0.0,5.0,72,-99.99,,,-99.99,570.0,meteohub,2013-07-04 20:20:00,
2013-07-04 16:25:00,81.3,71.4,30.06,ESE,112,1.0,3.0,72,-99.99,,,-99.99,561.0,meteohub,2013-07-04 20:25:00,
2013-07-04 16:30:00,81.1,71.2,30.06,ENE,72,1.0,4.0,72,-99.99,,,-99.99,545.0,meteohub,2013-07-04 20:30:00,
2013-07-04 16:35:00,81.1,71.2,30.06,NE,44,1.0,4.0,72,-99.99,,,-99.99,533.0,meteohub,2013-07-04 20:35:00,
2013-07-04 16:40:00,81.0,71.1,30.06,ENE,63,2.0,4.0,72,-99.99,,,-99.99,520.0,meteohub,2013-07-04 20:40:00,
2013-07-04 16:45:00,81.0,71.1,30.05,NE,38,0.0,7.0,72,-99.99,,,-99.99,504.0,meteohub,2013-07-04 20:45:00,
2013-07-04 16:50:00,80.6,71.1,30.05,ENE,73,0.0,7.0,73,-99.99,,,-99.99,494.0,meteohub,2013-07-04 20:50:00,
2013-07-04 16:55:00,80.4,70.9,30.05,ENE,67,1.0,7.0,73,-99.99,,,-99.99,480.0,meteohub,2013-07-04 20:55:00,
2013-07-04 17:00:00,80.2,70.9,30.05,East,88,1.0,7.0,73,-99.99,,,-99.99,468.0,meteohub,2013-07-04 21:00:00,
2013-07-04 17:05:00,80.1,70.2,30.05,ENE,65,0.0,7.0,72,-99.99,,,-99.99,468.0,meteohub,2013-07-04 21:05:00,
2013-07-04 17:10:00,79.9,70.5,30.05,ENE,65,0.0,6.0,73,-99.99,,,-99.99,445.0,meteohub,2013-07-04 21:10:00,
2013-07-04 17:15:00,79.5,70.2,30.05,East,100,0.0,4.0,73,-99.99,,,-99.99,431.0,meteohub,2013-07-04 21:15:00,
2013-07-04 17:20:00,79.3,70.3,30.05,East,91,2.0,6.0,74,-99.99,,,-99.99,417.0,meteohub,2013-07-04 21:20:00,
2013-07-04 17:25:00,79.3,70.3,30.05,ENE,71,0.0,6.0,74,-99.99,,,-99.99,403.0,meteohub,2013-07-04 21:25:00,
2013-07-04 17:30:00,79.2,70.2,30.05,East,90,1.0,6.0,74,-99.99,,,-99.99,387.0,meteohub,2013-07-04 21:30:00,
2013-07-04 17:35:00,79.2,70.5,30.05,ESE,103,0.0,6.0,75,-99.99,,,-99.99,371.0,meteohub,2013-07-04 21:35:00,
2013-07-04 17:40:00,79.2,70.5,30.05,East,85,1.0,5.0,75,-99.99,,,-99.99,355.0,meteohub,2013-07-04 21:40:00,
2013-07-04 17:45:00,79.2,70.5,30.05,ENE,68,1.0,5.0,75,-99.99,,,-99.99,285.0,meteohub,2013-07-04 21:45:00,
2013-07-04 17:50:00,78.8,70.5,30.05,East,86,2.0,5.0,76,-99.99,,,-99.99,230.0,meteohub,2013-07-04 21:50:00,
2013-07-04 17:55:00,78.6,70.3,30.05,East,79,0.0,5.0,76,-99.99,,,-99.99,125.0,meteohub,2013-07-04 21:55:00,
2013-07-04 18:00:00,78.3,70.5,30.05,ESE,105,3.0,5.0,77,-99.99,,,-99.99,149.0,meteohub,2013-07-04 22:00:00,
2013-07-04 18:05:00,77.9,70.5,30.05,East,80,2.0,5.0,78,-99.99,,,-99.99,171.0,meteohub,2013-07-04 22:05:00,
2013-07-04 18:10:00,77.5,70.2,30.05,East,93,0.0,6.0,78,-99.99,,,-99.99,128.0,meteohub,2013-07-04 22:10:00,
2013-07-04 18:15:00,77.0,70.0,30.05,ENE,75,0.0,6.0,79,-99.99,,,-99.99,47.0,meteohub,2013-07-04 22:15:00,
2013-07-04 18:20:00,76.5,69.8,30.05,East,86,1.0,6.0,80,-99.99,,,-99.99,25.0,meteohub,2013-07-04 22:20:00,
2013-07-04 18:25:00,75.7,69.4,30.06,ESE,111,1.0,6.0,81,-99.99,,,-99.99,23.0,meteohub,2013-07-04 22:25:00,
2013-07-04 18:30:00,75.0,69.4,30.06,ESE,107,0.0,5.0,83,-99.99,,,-99.99,23.0,meteohub,2013-07-04 22:30:00,
2013-07-04 18:35:00,74.7,69.4,30.06,East,92,1.0,5.0,84,-99.99,,,-99.99,23.0,meteohub,2013-07-04 22:35:00,
2013-07-04 18:40:00,74.1,69.3,30.06,ENE,78,1.0,3.0,85,-99.99,,,-99.99,26.0,meteohub,2013-07-04 22:40:00,
2013-07-04 18:45:00,73.9,69.1,30.06,East,90,0.0,5.0,85,-99.99,,,-99.99,28.0,meteohub,2013-07-04 22:45:00,
2013-07-04 18:51:00,73.6,69.1,30.06,East,94,1.0,5.0,86,-99.99,,,-99.99,30.0,meteohub,2013-07-04 22:51:00,
2013-07-04 18:56:00,73.2,69.1,30.06,East,95,0.0,5.0,87,-99.99,,,-99.99,26.0,meteohub,2013-07-04 22:56:00,
2013-07-04 19:01:00,73.0,68.9,30.05,East,94,0.0,5.0,87,-99.99,,,-99.99,21.0,meteohub,2013-07-04 23:01:00,
2013-07-04 19:06:00,73.0,69.3,30.05,East,98,1.0,5.0,88,-99.99,,,-99.99,18.0,meteohub,2013-07-04 23:06:00,
2013-07-04 19:11:00,72.9,69.1,30.05,East,94,1.0,5.0,88,-99.99,,,-99.99,16.0,meteohub,2013-07-04 23:11:00,
2013-07-04 19:16:00,72.9,69.1,30.05,East,86,0.0,3.0,88,-99.99,,,-99.99,14.0,meteohub,2013-07-04 23:16:00,
2013-07-04 19:21:00,72.7,69.3,30.05,East,83,0.0,3.0,89,-99.99,,,-99.99,12.0,meteohub,2013-07-04 23:21:00,
2013-07-04 19:26:00,72.5,69.1,30.06,East,97,1.0,3.0,89,-99.99,,,-99.99,9.0,meteohub,2013-07-04 23:26:00,
2013-07-04 19:31:00,72.3,69.3,30.06,ENE,65,0.0,4.0,90,-99.99,,,-99.99,9.0,meteohub,2013-07-04 23:31:00,
2013-07-04 19:36:00,72.1,69.1,30.05,East,96,0.0,4.0,90,-99.99,,,-99.99,9.0,meteohub,2013-07-04 23:36:00,
2013-07-04 19:41:00,72.1,69.4,30.05,East,89,0.0,4.0,91,-99.99,,,-99.99,9.0,meteohub,2013-07-04 23:41:00,
2013-07-04 19:46:00,72.0,69.3,30.05,ESE,105,2.0,7.0,91,-99.99,,,-99.99,5.0,meteohub,2013-07-04 23:46:00,
2013-07-04 19:51:00,72.0,69.3,30.04,East,82,2.0,7.0,91,-99.99,,,-99.99,5.0,meteohub,2013-07-04 23:51:00,
2013-07-04 19:56:00,72.0,69.4,30.05,East,90,1.0,3.0,92,-99.99,,,-99.99,5.0,meteohub,2013-07-04 23:56:00,
2013-07-04 20:01:00,72.0,69.4,30.04,East,90,1.0,2.0,92,-99.99,,,-99.99,0.0,meteohub,2013-07-05 00:01:00,
2013-07-04 20:06:00,72.0,69.8,30.05,East,87,0.0,2.0,93,-99.99,,,-99.99,0.0,meteohub,2013-07-05 00:06:00,
2013-07-04 20:11:00,72.0,69.4,30.04,East,87,0.0,2.0,92,-99.99,,,-99.99,0.0,meteohub,2013-07-05 00:11:00,
2013-07-04 20:16:00,71.8,69.3,30.04,East,88,0.0,2.0,92,-99.99,,,-99.99,0.0,meteohub,2013-07-05 00:16:00,
2013-07-04 20:21:00,71.8,69.3,30.04,ENE,72,0.0,2.0,92,-99.99,,,-99.99,0.0,meteohub,2013-07-05 00:21:00,
2013-07-04 20:26:00,71.6,69.4,30.04,ENE,72,0.0,4.0,93,-99.99,,,-99.99,0.0,meteohub,2013-07-05 00:26:00,
2013-07-04 20:31:00,71.4,69.3,30.04,East,92,0.0,4.0,93,-99.99,,,-99.99,0.0,meteohub,2013-07-05 00:31:00,
2013-07-04 20:36:00,71.4,69.3,30.04,East,97,1.0,2.0,93,-99.99,,,-99.99,0.0,meteohub,2013-07-05 00:36:00,
2013-07-04 20:41:00,71.2,69.1,30.04,East,84,0.0,3.0,93,-99.99,,,-99.99,0.0,meteohub,2013-07-05 00:41:00,
2013-07-04 20:46:00,71.2,69.1,30.04,East,84,0.0,3.0,93,-99.99,,,-99.99,0.0,meteohub,2013-07-05 00:46:00,
2013-07-04 20:51:00,71.1,68.9,30.04,East,85,1.0,3.0,93,-99.99,,,-99.99,0.0,meteohub,2013-07-05 00:51:00,
2013-07-04 20:56:00,71.1,68.9,30.04,East,86,0.0,2.0,93,-99.99,,,-99.99,0.0,meteohub,2013-07-05 00:56:00,
2013-07-04 21:01:00,70.9,68.7,30.05,East,86,0.0,2.0,93,-99.99,,,-99.99,0.0,meteohub,2013-07-05 01:01:00,
2013-07-04 21:06:00,70.7,68.5,30.05,East,92,0.0,2.0,93,-99.99,,,-99.99,0.0,meteohub,2013-07-05 01:06:00,
2013-07-04 21:11:00,70.5,68.7,30.05,East,92,0.0,2.0,94,-99.99,,,-99.99,0.0,meteohub,2013-07-05 01:11:00,
2013-07-04 21:16:00,70.5,68.7,30.05,East,92,0.0,2.0,94,-99.99,,,-99.99,0.0,meteohub,2013-07-05 01:16:00,
2013-07-04 21:21:00,70.5,68.7,30.04,East,94,2.0,3.0,94,-99.99,,,-99.99,0.0,meteohub,2013-07-05 01:21:00,
2013-07-04 21:26:00,70.7,69.3,30.05,East,97,1.0,3.0,95,-99.99,,,-99.99,0.0,meteohub,2013-07-05 01:26:00,
2013-07-04 21:31:00,70.9,69.1,30.04,East,96,2.0,3.0,94,-99.99,,,-99.99,0.0,meteohub,2013-07-05 01:31:00,
2013-07-04 21:36:00,71.1,69.3,30.04,East,86,0.0,2.0,94,-99.99,,,-99.99,0.0,meteohub,2013-07-05 01:36:00,
2013-07-04 21:41:00,71.1,69.3,30.04,ESE,102,0.0,5.0,94,-99.99,,,-99.99,0.0,meteohub,2013-07-05 01:41:00,
2013-07-04 21:46:00,71.1,69.3,30.04,East,97,1.0,5.0,94,-99.99,,,-99.99,0.0,meteohub,2013-07-05 01:46:00,
2013-07-04 21:51:00,71.1,69.3,30.04,East,96,0.0,5.0,94,-99.99,,,-99.99,0.0,meteohub,2013-07-05 01:51:00,
2013-07-04 21:56:00,71.1,69.3,30.04,East,91,0.0,3.0,94,-99.99,,,-99.99,0.0,meteohub,2013-07-05 01:56:00,
2013-07-04 22:01:00,70.9,69.1,30.04,East,91,0.0,2.0,94,-99.99,,,-99.99,0.0,meteohub,2013-07-05 02:01:00,
2013-07-04 22:06:00,70.9,69.1,30.05,East,91,0.0,2.0,94,-99.99,,,-99.99,0.0,meteohub,2013-07-05 02:06:00,
2013-07-04 22:11:00,70.7,68.9,30.04,East,91,0.0,2.0,94,-99.99,,,-99.99,0.0,meteohub,2013-07-05 02:11:00,
2013-07-04 22:16:00,70.7,68.9,30.04,East,91,0.0,1.0,94,-99.99,,,-99.99,0.0,meteohub,2013-07-05 02:16:00,
2013-07-04 22:21:00,70.7,68.9,30.04,East,88,1.0,1.0,94,-99.99,,,-99.99,0.0,meteohub,2013-07-05 02:21:00,
2013-07-04 22:26:00,70.7,68.9,30.04,East,99,0.0,2.0,94,-99.99,,,-99.99,0.0,meteohub,2013-07-05 02:26:00,
2013-07-04 22:31:00,70.5,68.7,30.04,East,98,0.0,2.0,94,-99.99,,,-99.99,0.0,meteohub,2013-07-05 02:31:00,
2013-07-04 22:36:00,70.5,68.7,30.04,East,97,1.0,2.0,94,-99.99,,,-99.99,0.0,meteohub,2013-07-05 02:36:00,
2013-07-04 22:41:00,70.5,68.7,30.04,East,96,0.0,2.0,94,-99.99,,,-99.99,0.0,meteohub,2013-07-05 02:41:00,
2013-07-04 22:46:00,70.5,68.7,30.04,East,85,0.0,2.0,94,-99.99,,,-99.99,0.0,meteohub,2013-07-05 02:46:00,
2013-07-04 22:51:00,70.3,68.5,30.03,East,94,1.0,2.0,94,-99.99,,,-99.99,0.0,meteohub,2013-07-05 02:51:00,
2013-07-04 22:56:00,70.3,68.5,30.04,East,94,1.0,2.0,94,-99.99,,,-99.99,0.0,meteohub,2013-07-05 02:56:00,
2013-07-04 23:01:00,70.3,68.5,30.04,East,94,0.0,2.0,94,-99.99,,,-99.99,0.0,meteohub,2013-07-05 03:01:00,
2013-07-04 23:06:00,70.2,68.4,30.04,East,94,0.0,2.0,94,-99.99,,,-99.99,0.0,meteohub,2013-07-05 03:06:00,
2013-07-04 23:11:00,70.0,67.8,30.04,East,94,0.0,1.0,93,-99.99,,,-99.99,0.0,meteohub,2013-07-05 03:11:00,
2013-07-04 23:16:00,69.8,68.0,30.04,East,98,0.0,2.0,94,-99.99,,,-99.99,0.0,meteohub,2013-07-05 03:16:00,
2013-07-04 23:21:00,69.6,67.8,30.04,East,97,0.0,2.0,94,-99.99,,,-99.99,0.0,meteohub,2013-07-05 03:21:00,
2013-07-04 23:26:00,69.4,68.0,30.04,East,96,2.0,2.0,95,-99.99,,,-99.99,0.0,meteohub,2013-07-05 03:26:00,
2013-07-04 23:31:00,69.4,68.0,30.04,East,95,1.0,3.0,95,-99.99,,,-99.99,0.0,meteohub,2013-07-05 03:31:00,
2013-07-04 23:36:00,69.4,68.0,30.04,East,86,0.0,3.0,95,-99.99,,,-99.99,0.0,meteohub,2013-07-05 03:36:00,
2013-07-04 23:41:00,69.3,67.8,30.03,East,88,0.0,3.0,95,-99.99,,,-99.99,0.0,meteohub,2013-07-05 03:41:00,
2013-07-04 23:46:00,69.3,67.8,30.04,East,89,0.0,5.0,95,-99.99,,,-99.99,0.0,meteohub,2013-07-05 03:46:00,
2013-07-04 23:51:00,69.1,67.6,30.04,East,89,0.0,5.0,95,-99.99,,,-99.99,0.0,meteohub,2013-07-05 03:51:00,
2013-07-04 23:56:00,69.1,67.6,30.04,East,89,0.0,2.0,95,-99.99,,,-99.99,0.0,meteohub,2013-07-05 03:56:00,